Weather in Vila Velha

Brazil     20°19′49″S   40°17′31″W
temp.,
°C
wind,
m/s
gust,
m/s
humid.,
%
clouds,
%
prec.,
mm/h
press.,
hPa
HPBL,
m
15 june, tue
tue1500:00+19wsw33790 0.1 1021194
03:00+18wsw23790 0.1 1019136
06:00+18wsw23803 0.0 1020151
09:00+21sw226971 0.1 1021289
12:00+23sse336331 0.1 1019936
15:00+23ese225718 0.1 1017860
18:00+22se22603 0.0 1017455
21:00+21w01630 0.0 1018445
16 june, wed
wed1600:00+19wnw22750 0.0 1017107
03:00+18w22770 0.0 101699
06:00+18wnw11770 0.0 101786
09:00+21wnw11670 0.0 1019250
12:00+23ese32641 0.0 1017669
15:00+22se33671 0.0 1015564
18:00+22s34730 0.0 1017460
21:00+21ssw347713 0.0 1019503
17 june, thu
thu1700:00+19sw34829 0.0 1019303
03:00+19wsw338468 0.0 1019202
06:00+19sw34814 0.0 1020296
09:00+22ssw35693 0.0 1021538
12:00+23s556345 0.0 1020873
15:00+23sse44678 0.0 1019615
18:00+22ssw347322 0.0 1020479
21:00+21sw457846 0.0 1021451
18 june, fri
fri1800:00+20sw45845 0.1 1021396
03:00+20sw568716 0.1 1020461
06:00+19sw578911 0.3 1022418
09:00+21ssw577620 0.3 1024672
12:00+23s557220 0.2 1023839
15:00+22sse557426 0.6 1022789
18:00+21s348137 1.1 1023465
21:00+21s348069 1.8 1025528
19 june, sat
sat1900:00+20ssw348614 0.6 1024386
03:00+19sw238565 1.4 1024341
06:00+20ssw1382100 1.3 1024346
09:00+20sse1380100 2.4 1026616
12:00+21e1377100 0.4 1025640
15:00+21ene127699 0.8 1023586
18:00+21ne2375100 0.3 1023578
21:00+21n2377100 0.4 1024403